Regional Weather Roundup
Issued by NWS Burlington, VT

Home | Current Version | Previous Version | Text Only | Print | Product List | Glossary On
Versions: 1 2 3 4 5 6 7 8 9 10 11 12 13 14 15 16 17 18 19 20 21 22 23 24 25 26 27 28 29 30 31 32 33 34 35 36 37 38 39 40 41 42 43 44 45 46 47 48 49 50
000
ASUS41 KBTV 282330
RWRBTV
VERMONT REGIONAL WEATHER ROUNDUP
NATIONAL WEATHER SERVICE BURLINGTON VT
700 PM EDT MON JUL 28 2014

NOTE: "FAIR" INDICATES FEW OR NO CLOUDS BELOW 12,000 FEET WITH NO
SIGNIFICANT WEATHER AND/OR OBSTRUCTIONS TO VISIBILITY.

* THESE REPORTS ARE NOT UNDER NWS QUALITY CONTROL AND/OR DO NOT
  REPORT WEATHER SUCH AS PRECIPITATION AND FOG.

VTZ001>019-290000-
_____VERMONT_____


CITY           SKY/WX    TMP DP  RH WIND       PRES   REMARKS
BURLINGTON     HVY RAIN  63  61  93 N21G30    29.54R VSB 1
MONTPELIER     MOCLDY    66  63  90 NW5       29.54F
MORRISVILLE    LGT RAIN  64  62  93 NW9       29.53S FOG
ST. JOHNSBURY*   N/A     67  65  93 MISG      29.46F
LYNDONVILLE*     N/A    N/A N/A N/A MISG        N/A
MIDDLEBURY*    HVY RAIN  63  63 100 N10G21    29.53S
RUTLAND*       CLOUDY    63  61  94 NW8       29.53R
SPRINGFIELD    LGT RAIN  66  65  96 W3        29.48F
HIGHGATE*      RAIN      60  60  97 N9G20     29.57R
NEWPORT*       CLOUDY   N/A N/A N/A NW6       29.53S
BENNINGTON     MOCLDY    66  63  90 SW8       29.54R
SUTTON*          N/A     64 N/A N/A MISG        N/A
GALLUP MILLS*    N/A     50 N/A N/A MISG        N/A
UNION VILLAGE*   N/A     68 N/A N/A MISG        N/A
MT. MANSFIELD*   N/A     54 N/A N/A N13G24      N/A

_____LAKE CHAMPLAIN_____


CITY           SKY/WX    TMP DP  RH WIND       PRES   REMARKS
COLCHESTER RF*   N/A     63  63 100 N28         N/A
DIAMOND ISL*     N/A    N/A N/A N/A NW18        N/A

$$

NYZ007-026>031-035-052-083-290000-
_____NORTHERN NEW YORK_____


CITY           SKY/WX    TMP DP  RH WIND       PRES   REMARKS
PLATTSBURGH    LGT RAIN  61  60  97 NW13      29.57R
SARANAC LAKE   LGT RAIN  57  56  96 N8        29.63R FOG
MASSENA        LGT RAIN  62  60  93 NW7       29.67R
OGDENSBURG*    PTCLDY    63  57  82 N8        29.69R
POTSDAM*       RAIN      61  61 100 N5        29.68R
PARISHVILLE*     N/A     59 N/A N/A N5          N/A
WATERTOWN      LGT RAIN  62  55  77 N7        29.72R
FT DRUM        DRIZZLE   59  59 100 N8        29.71R
ALBANY         MOCLDY    69  65  86 W8        29.53R
GLENS FALLS    LGT RAIN  65  61  87 NW10      29.54R

$$
NHZ002-005-011-290000-
_____NEW HAMPSHIRE_____


CITY           SKY/WX    TMP DP  RH WIND       PRES   REMARKS
LEBANON        CLOUDY    69  66  90 CALM      29.46F
KEENE          MOCLDY    68  57  68 SW6       29.50R
MT WASHINGTON  TSTM      52  52 100 NW3         N/A  VSB 0
PLYMOUTH       LGT RAIN  64  62  95 CALM      29.47S
WHITEFIELD     LGT RAIN  68  66  93 S5        29.51R FOG

$$

_____REGIONAL QUEBEC LOCATIONS_____


CITY           SKY/WX    TMP DP  RH WIND       PRES   REMARKS
MONTREAL       LGT RAIN  61  57  88 N12G21    29.62R
QUEBEC CITY    RAIN      61  59  94 NE14      29.57F
SHERBROOKE     LGT RAIN  63  61  94 N7        29.49S

_____REGIONAL ONTARIO LOCATIONS_____


CITY           SKY/WX    TMP DP  RH WIND       PRES   REMARKS
OTTAWA         MOCLDY    64  54  68 NW14      29.70R

______KEY______
VSB  - VISIBILITY IN MILES
WCI  - WIND CHILL INDEX
HX   - HEAT INDEX
$$
NNNN


USA.gov is the U.S. government's official web portal to all federal, state and local government web resources and services.